Tracking 31027 objects as of 19-Jul-2025
HD Live streaming from Space Station
objects crossing your sky now

STARLINK-2616

Track STARLINK-2616 now!
10-day predictions
STARLINK-2616 is classified as:


NORAD ID: 48695
Int'l Code: 2021-044BK
Perigee: 553.5 km
Apogee: 555.2 km
Inclination: 53.1 °
Period: 95.6 minutes
Semi major axis: 6925 km
RCS: Unknown
Launch date: May 26, 2021
Source: United States (US)
Launch site: AIR FORCE EASTERN TEST RANGE (AFETR)
Your satellite tracking list
STARLINK-3349
Track 1 satellite(s)




NASA's NSSDC Master Catalog

Two Line Element Set (TLE):
1 48695U 21044BK  25198.98618855 -.00001638  00000-0 -91125-4 0  9990
2 48695  53.0547  60.2930 0001222  90.3462 269.7667 15.06390729228826
Source of the keplerian elements: AFSPC